Theta_e
319 318 317 315 314 315 315 314 314 314 314 314 314 313 313 314 314 315 315 315 315 316 316 317 318 320 313 301 303 313 341 338 318 312 308 305 303 300 296 295 295 294 297 299 301 300 298
319 317 316 315 315 314 314 314 314 314 313 313 313 314 313 314 314 314 314 314 315 314 315 316 318 320 309 299 307 316 319 317 312 309 308 307 306 305 298 296 295 298 298 301 299 298 298
317 317 316 316 314 314 314 314 313 313 313 313 313 313 313 313 313 314 314 314 314 314 316 317 319 319 308 303 311 317 315 310 310 311 307 309 309 303 301 298 299 300 297 299 298 298 298
317 316 315 315 314 313 313 312 312 313 313 313 312 312 312 312 313 313 314 314 314 315 317 319 320 314 301 311 312 313 311 310 311 310 309 310 308 303 299 300 300 296 294 291 296 300 300
317 316 316 315 314 313 312 312 312 312 313 312 312 311 311 312 313 313 313 313 315 316 320 321 311 305 300 316 312 313 311 309 310 310 310 314 305 300 300 294 292 292 289 290 295 300 299
316 316 315 314 313 312 312 312 311 312 312 312 311 311 310 311 312 312 311 312 318 318 320 319 316 302 304 307 314 313 313 312 309 308 306 304 299 295 292 291 286 288 289 290 292 298 297
316 315 314 313 312 312 312 311 311 311 311 311 311 310 310 310 311 311 308 308 305 303 309 305 305 304 307 315 318 311 312 310 308 304 297 299 294 292 295 295 296 295 294 293 296 299 295
315 315 314 312 311 311 311 311 311 311 311 311 311 310 310 310 310 310 305 306 308 306 300 309 310 308 311 313 308 311 312 305 302 297 298 295 292 298 300 299 298 296 293 293 295 298 296
315 314 313 312 311 311 311 310 310 310 310 309 309 309 309 310 309 307 305 309 310 306 299 303 308 308 309 310 306 308 308 304 301 297 296 293 298 302 300 297 296 295 293 292 293 297 296
315 314 313 312 311 310 310 310 310 310 309 309 308 309 309 308 304 301 307 311 308 308 293 299 305 307 310 310 305 313 311 306 300 298 297 295 300 300 297 296 297 290 297 297 296 292 288
315 314 313 311 311 310 310 309 309 309 309 308 308 308 308 308 297 303 308 308 307 309 282 301 306 313 309 305 306 306 311 305 299 299 298 296 297 296 295 297 299 296 300 296 296 291 288
314 313 312 311 310 310 309 308 309 308 308 308 308 308 308 303 299 304 307 305 308 295 284 301 306 305 304 305 306 306 305 307 305 299 298 298 301 300 299 301 300 301 296 294 290 288 284
313 312 312 311 310 309 308 308 308 308 308 307 308 308 305 305 300 303 305 306 292 287 299 299 301 303 302 300 302 303 301 298 295 291 290 295 296 299 302 297 298 296 290 284 284 283 283
314 313 311 310 309 309 308 307 307 307 307 307 306 305 303 306 302 304 306 298 285 294 297 303 302 302 298 300 300 301 299 294 299 296 291 289 289 299 302 297 293 292 290 285 281 282 285
313 312 311 309 309 309 308 307 307 306 306 305 304 296 300 306 306 304 301 289 289 297 300 299 300 296 296 299 298 298 296 295 297 297 290 290 292 301 302 300 297 292 288 291 286 285 283
313 311 310 309 309 308 307 307 307 307 306 305 294 294 301 305 301 302 296 292 296 300 301 301 293 296 291 295 296 296 295 296 297 299 297 294 289 298 301 300 299 294 295 286 285 280 279
312 310 309 309 308 308 307 307 307 307 305 303 292 293 303 305 304 295 288 291 297 299 301 297 293 292 292 291 294 293 293 293 296 297 296 294 291 292 297 293 290 289 286 287 285 284 280
312 310 308 308 308 307 307 307 307 306 304 297 289 288 300 302 292 290 287 292 297 296 298 297 294 293 291 290 290 291 289 292 297 297 289 290 289 287 290 293 294 289 286 285 280 280 280
310 309 308 307 307 307 306 306 307 306 304 297 287 288 300 298 285 285 290 294 297 294 294 295 294 294 293 289 286 293 294 296 296 294 289 288 282 278 281 285 289 286 287 285 283 281 279
309 308 307 306 306 306 306 306 306 306 304 294 290 286 290 291 290 287 288 291 293 298 296 296 293 293 290 288 290 289 291 296 297 297 301 293 283 282 279 282 285 283 286 286 283 275 278
308 307 306 306 305 305 305 306 306 305 304 294 289 285 288 283 286 288 289 292 292 292 296 295 292 292 289 285 286 286 290 291 293 296 290 287 281 283 284 286 287 286 286 286 283 283 279
307 307 306 305 305 305 305 306 306 305 303 293 288 286 289 287 288 288 289 288 291 292 293 291 290 292 289 285 288 285 288 287 287 289 285 285 279 281 281 287 286 284 286 286 285 285 284
307 306 305 305 304 304 305 304 305 305 299 289 290 291 288 287 286 286 287 289 292 293 294 294 291 288 288 290 293 292 291 289 289 286 283 283 280 277 275 284 285 279 285 286 286 287 287
306 305 305 304 304 304 304 304 304 305 301 291 290 289 285 283 287 287 289 291 291 291 290 292 291 287 292 296 293 290 289 289 288 287 287 282 280 279 274 280 269 284 292 292 289 291 291
306 305 304 304 304 303 304 303 304 304 305 292 291 289 285 281 287 287 290 289 290 290 290 292 293 294 293 291 285 282 283 284 288 291 287 286 283 275 272 273 281 286 291 290 286 285 292
305 305 304 303 303 303 304 303 303 303 304 293 291 291 287 282 282 290 287 288 284 284 287 290 293 294 292 287 284 278 277 283 283 287 289 288 286 280 280 274 272 283 293 295 291 279 291
305 304 304 303 303 303 303 303 303 303 303 295 292 291 288 283 287 287 284 283 287 285 284 287 291 290 289 283 281 279 280 287 281 281 280 281 282 279 277 277 281 288 295 294 279 279 291
304 304 303 303 302 303 302 302 303 303 302 295 291 293 290 285 286 290 291 286 286 284 281 285 286 287 286 281 281 282 281 282 281 283 281 280 277 277 278 275 276 293 291 284 286 289 292
304 303 303 302 303 302 302 302 303 302 302 298 288 293 295 289 287 291 293 294 292 291 285 285 284 284 286 283 284 282 280 280 280 277 285 278 281 277 279 279 286 291 291 293 292 291 292
Wind_Speed
21 22 23 23 23 21 21 21 21 21 22 22 23 23 23 22 21 20 17 16 15 13 12 10 9 8 2 3 9 3 10 12 7 6 5 4 3 2 3 2 2 4 6 4 10 10 8
20 22 22 23 22 22 21 21 22 22 22 22 22 22 23 23 22 20 18 16 13 11 10 9 7 7 1 4 5 3 9 6 6 6 5 7 6 7 3 2 1 2 4 7 5 5 5
21 22 22 21 21 21 21 22 22 23 23 23 23 23 23 22 22 21 19 18 14 11 8 6 5 3 1 15 3 1 8 6 6 5 5 5 4 3 3 6 1 4 5 7 3 1 2
20 21 21 21 20 22 22 24 24 24 24 24 24 24 23 23 22 21 21 17 15 11 6 5 4 1 8 5 3 4 4 4 4 5 3 4 4 3 3 1 8 5 4 4 5 1 2
20 20 20 20 21 22 23 23 23 24 25 26 26 25 25 24 24 23 20 20 12 4 2 8 3 3 10 5 3 5 5 6 2 2 6 5 1 2 6 4 6 5 4 4 9 4 2
19 20 21 21 21 22 22 23 24 24 26 26 27 26 26 25 25 23 22 9 7 6 2 3 2 2 4 4 4 6 5 5 3 4 3 4 5 3 4 5 5 4 3 2 4 6 3
18 20 21 22 22 22 22 23 24 25 26 27 28 28 28 27 26 23 9 2 5 3 1 7 7 7 7 4 3 4 5 6 2 3 4 2 2 7 9 8 6 3 3 5 8 9 1
18 19 20 22 23 23 23 24 25 26 27 27 28 29 29 28 26 19 1 4 1 2 11 13 18 14 17 4 5 8 10 7 7 8 3 4 8 9 4 3 6 6 5 10 9 11 6
17 19 20 22 23 23 24 25 25 27 28 28 28 29 30 30 29 2 2 3 5 0 3 9 7 7 7 11 10 13 10 5 6 7 6 8 12 5 3 5 7 7 6 7 10 2 3
17 18 21 20 21 22 25 27 27 28 30 30 30 30 27 32 3 5 4 7 8 1 5 9 5 7 6 8 6 10 9 8 3 12 7 6 6 8 5 7 2 3 7 6 3 3 4
17 18 20 21 22 24 25 27 28 29 32 32 32 29 27 12 3 2 5 10 8 6 4 4 3 2 6 8 3 5 7 5 10 7 8 10 4 5 4 8 4 9 5 3 4 3 3
17 19 19 19 21 23 23 25 29 29 30 34 34 32 25 2 1 6 9 8 5 7 8 5 4 2 5 3 2 2 4 4 5 5 1 11 4 6 7 3 5 5 1 6 5 4 2
16 17 18 19 21 23 25 26 28 32 32 35 35 34 14 2 2 5 6 5 5 4 6 5 4 6 2 6 7 7 4 5 6 4 4 5 6 2 2 4 5 6 6 4 5 5 5
14 15 16 18 20 23 25 26 27 31 35 36 37 27 3 5 3 5 4 7 1 2 3 4 5 8 4 6 4 8 4 3 8 5 3 5 6 5 5 4 3 3 5 6 6 3 4
14 15 17 19 20 22 24 26 28 29 34 37 28 6 4 4 3 2 7 4 6 3 5 8 8 4 5 6 3 3 4 3 5 6 3 1 2 4 7 4 3 2 4 2 4 2 4
13 15 17 18 20 22 24 27 28 30 33 33 5 5 5 7 2 6 6 4 3 3 5 4 5 7 5 6 5 6 4 6 3 7 1 1 2 2 2 3 9 6 1 3 4 2 5
12 14 16 17 19 21 22 25 28 30 33 25 4 5 5 11 4 6 4 5 2 3 3 5 4 5 5 6 5 6 10 5 9 5 8 6 2 6 1 4 3 4 3 5 3 4 6
11 13 15 17 18 19 21 25 27 29 30 9 4 4 5 7 6 2 1 3 5 3 5 5 5 3 2 3 4 4 5 5 8 3 4 5 2 2 4 7 3 3 4 5 6 3 2
10 12 14 16 17 19 21 23 25 26 24 4 3 4 6 5 4 3 6 4 2 4 3 2 2 2 2 2 1 3 5 4 8 5 2 1 2 2 7 6 4 7 3 4 3 3 6
9 10 13 15 17 18 20 21 24 26 25 3 3 6 7 6 2 3 5 4 5 4 3 1 4 5 4 4 4 2 4 2 4 2 10 4 3 7 7 5 1 4 5 1 5 3 3
9 11 12 14 16 17 18 20 22 26 26 3 4 2 2 5 4 4 3 5 5 1 1 3 3 2 3 2 3 2 1 4 3 4 4 5 4 3 4 5 2 4 6 6 6 7 7
8 9 11 13 14 16 17 19 21 23 23 5 3 4 5 4 5 5 5 5 8 10 1 1 4 4 3 5 5 4 3 3 5 2 3 2 3 2 5 7 6 6 8 9 9 7 7
8 9 10 11 12 13 15 17 18 20 11 4 3 2 3 5 5 3 2 5 4 7 4 5 2 3 3 5 8 8 7 5 8 6 5 4 5 3 4 2 2 5 5 5 4 2 2
8 8 9 10 11 12 13 14 15 15 8 1 2 2 3 5 2 1 5 5 6 7 4 4 2 2 2 3 3 2 4 7 6 8 8 7 6 3 3 3 1 5 3 2 1 1 2
9 9 9 9 10 11 11 12 13 13 14 1 2 2 1 4 3 8 5 4 7 6 4 3 4 3 4 4 3 4 5 6 2 5 4 5 5 3 4 2 5 5 1 2 2 5 4
9 9 9 9 9 10 10 11 11 11 11 2 2 1 2 1 4 3 2 3 3 3 6 4 5 4 4 3 2 3 3 2 3 1 6 5 5 5 2 2 4 5 2 3 4 5 3
9 9 9 9 9 10 10 11 10 10 10 2 3 1 2 2 4 2 2 2 3 2 3 4 6 7 3 2 2 3 4 2 3 1 2 2 2 4 3 4 6 5 2 3 4 7 4
9 9 9 9 10 9 10 10 9 9 10 3 4 2 2 3 6 5 4 2 3 1 1 5 5 3 3 2 3 3 3 2 1 1 2 3 3 3 2 2 5 2 2 4 6 3 5
10 10 9 9 8 9 10 10 9 9 8 3 2 2 1 3 7 3 10 14 12 17 4 4 3 2 4 3 0 1 1 2 1 2 4 1 5 4 7 7 5 3 5 7 4 6 8
Wind_Direction
17 15 13 10 7 3 1 359 357 354 351 348 346 345 343 339 336 332 329 326 323 319 311 304 302 310 314 15 253 278 106 125 110 119 173 151 143 191 249 237 193 203 259 267 263 279 219
15 12 9 6 2 1 359 356 353 351 348 346 343 342 339 337 333 329 325 320 316 312 305 293 288 303 91 284 247 194 135 132 150 164 176 162 201 197 278 297 162 248 244 271 287 282 230
13 10 7 2 360 358 356 355 352 349 346 343 340 340 338 335 330 327 321 319 315 305 289 272 269 263 156 238 327 197 161 187 175 181 195 204 194 176 163 315 228 277 313 340 269 233 218
10 7 4 360 357 357 356 354 351 348 344 341 340 338 337 335 328 325 323 318 311 298 262 215 195 230 250 247 276 163 151 297 229 231 246 254 192 206 164 280 2 2 49 5 279 29 294
8 5 1 358 357 355 353 350 349 345 343 341 338 337 335 333 328 327 323 318 305 262 162 158 134 155 266 315 223 217 154 219 90 242 257 277 277 100 36 78 0 0 246 281 319 201 217
6 4 1 358 357 354 351 349 347 345 342 339 337 335 334 333 331 326 323 313 113 126 166 203 268 21 270 232 196 191 212 218 252 351 329 158 47 74 45 76 216 249 280 304 255 289 139
3 1 359 358 356 353 349 347 346 344 341 338 337 335 333 332 330 328 334 117 17 7 212 216 215 226 272 228 248 186 170 117 96 75 196 13 81 233 231 197 211 269 262 270 279 270 152
360 358 357 356 354 351 349 346 344 342 340 337 336 335 333 330 329 328 226 63 237 260 295 227 243 242 246 75 316 288 121 150 142 213 180 22 243 231 249 225 222 239 239 270 278 265 175
354 356 356 355 352 349 347 345 344 342 339 337 335 335 332 328 323 353 309 231 328 226 272 293 219 228 208 153 222 259 162 169 167 185 178 179 241 59 210 286 267 244 194 233 223 344 331
352 355 355 352 351 349 348 345 344 343 339 337 334 334 337 327 26 324 295 318 335 180 28 278 252 256 144 138 229 206 185 146 198 194 181 213 273 249 265 259 216 275 225 246 247 103 240
355 354 353 351 350 349 347 344 343 343 337 335 332 335 335 328 271 342 320 324 313 58 335 255 239 151 155 163 192 222 176 118 182 189 121 239 237 253 202 227 207 240 311 252 228 173 90
354 353 351 349 348 347 347 346 341 341 338 332 332 329 334 130 292 254 303 306 49 47 254 316 335 300 157 207 271 99 152 89 166 186 164 230 212 178 219 243 207 252 311 37 48 94 26
349 351 350 350 348 347 348 348 344 340 339 333 333 325 322 237 233 317 322 36 47 162 320 342 342 344 356 355 15 4 155 166 180 139 239 297 250 286 89 57 360 57 57 341 335 0 217
343 347 349 351 350 348 347 345 346 343 336 335 331 323 254 236 291 334 50 50 213 275 310 348 339 316 79 17 34 352 39 54 27 13 140 162 302 18 335 138 174 49 137 156 222 196 237
341 348 349 352 349 349 348 346 347 345 338 334 327 332 298 309 255 73 66 78 215 314 333 338 324 30 4 359 38 54 66 67 32 30 111 114 217 9 29 24 72 292 58 199 130 29 86
338 347 351 351 349 351 351 347 346 346 341 335 333 335 287 321 35 62 73 220 253 353 340 7 8 23 353 359 20 18 75 350 12 17 21 198 328 90 299 13 9 92 237 25 9 239 233
336 346 353 350 349 351 350 347 346 349 344 334 21 14 269 334 67 48 140 239 307 2 47 37 32 9 26 9 1 351 25 21 360 1 41 31 62 295 340 77 165 358 12 62 116 134 198
338 345 350 350 349 349 353 350 349 348 346 31 6 359 318 348 50 1 60 303 284 359 15 36 104 83 80 3 351 3 80 20 335 8 53 346 108 290 282 340 304 113 108 98 114 253 258
340 342 348 349 350 352 354 351 347 347 0 334 15 281 315 41 82 335 312 300 1 14 9 54 67 59 63 51 322 59 85 7 22 48 71 17 5 23 334 352 2 75 87 123 115 87 219
336 344 346 349 353 354 351 351 349 346 352 92 27 349 326 31 17 19 344 288 332 346 66 98 112 75 60 39 19 346 16 97 4 56 55 87 152 166 196 227 186 316 325 272 142 122 240
337 338 344 347 350 353 351 351 354 348 348 87 31 299 201 313 327 338 297 318 314 265 78 37 93 65 160 170 353 32 359 323 331 353 59 96 203 199 253 255 246 234 243 246 210 217 200
324 332 338 342 346 350 353 353 357 357 344 68 49 19 349 287 297 321 351 8 1 338 149 138 128 157 133 160 188 214 188 188 232 324 99 3 216 136 238 242 235 246 241 239 246 252 248
320 327 330 336 341 345 352 358 0 4 15 45 318 339 99 289 326 353 13 329 356 350 357 58 199 194 226 233 191 205 199 201 215 197 155 180 144 95 268 356 12 314 243 216 229 227 235
312 316 323 329 333 340 347 356 1 5 44 151 268 76 57 281 306 316 335 309 307 307 263 307 312 227 251 72 68 87 253 253 236 244 176 156 131 126 214 35 19 242 305 87 98 93 324
307 312 315 320 328 332 338 349 353 4 9 68 291 73 106 283 284 300 329 315 320 316 302 310 319 336 336 55 56 11 336 350 11 18 144 143 130 100 127 184 298 314 72 89 93 276 214
302 305 308 312 317 321 330 338 344 349 357 54 274 199 111 98 254 331 314 307 301 310 327 306 317 315 45 80 84 154 225 256 300 289 62 90 92 111 144 149 224 243 196 109 87 280 196
299 298 299 303 308 312 321 326 335 342 350 35 278 67 108 237 270 52 223 273 280 342 276 303 337 335 29 101 138 167 224 249 260 214 339 21 70 172 166 205 279 248 185 78 100 245 199
291 290 293 298 301 304 316 316 322 335 339 36 273 284 72 259 274 236 262 162 10 43 173 294 356 336 15 101 139 214 186 241 336 274 195 177 161 213 121 149 275 163 81 178 219 265 250
281 281 283 292 299 306 308 305 311 329 321 71 311 304 339 212 248 273 254 256 228 234 178 236 209 231 210 91 123 82 42 28 105 278 347 286 178 196 169 220 219 206 207 253 223 238 259